Location: Saint-Denis
(20.8800°S, 55.4481°E)
Time: 05:54:38
(UTC+04:00)

Envisat - Visible Passes

Search period start: 01 February 2023 00:00
Search period end: 11 February 2023 00:00
Orbit: 763 x 765 km, 98.2° (Epoch: 31 January)

Date Brightness Start Highest point End Pass type
(mag) Time Alt. Az. Time Alt. Az. Time Alt. Az.
01 Feb 5.0 03:03:17 24° ESE 03:03:32 24° ESE 03:07:36 10° SSE visible
01 Feb 4.3 04:43:28 22° WSW 04:43:28 22° WSW 04:46:22 10° SW visible
02 Feb 3.2 04:06:09 54° SW 04:06:09 54° SW 04:10:20 10° SSW visible
03 Feb 3.9 03:28:49 45° ESE 03:28:49 45° ESE 03:33:13 10° S visible
03 Feb 5.0 05:09:00 10° WSW 05:09:00 10° WSW 05:09:09 10° WSW visible
04 Feb 5.4 02:51:30 18° ESE 02:51:33 18° ESE 02:54:56 10° SSE visible
04 Feb 4.1 04:31:41 27° WSW 04:31:41 27° WSW 04:34:46 10° SW visible
05 Feb 3.4 03:54:21 55° SSW 03:54:21 55° SSW 03:58:19 10° SSW visible
06 Feb 4.5 03:17:02 33° ESE 03:17:02 33° ESE 03:20:54 10° S visible
06 Feb 4.8 04:57:13 14° WSW 04:57:13 14° WSW 04:58:25 10° WSW visible
07 Feb 5.7 02:39:42 13° ESE 02:39:42 13° ESE 02:41:54 10° SE visible
07 Feb 3.9 04:19:54 32° SW 04:19:54 32° SW 04:22:59 10° SSW visible
08 Feb 3.8 03:42:34 46° SSE 03:42:34 46° SSE 03:46:13 10° S visible
09 Feb 5.1 03:05:15 24° SE 03:05:15 24° SE 03:08:27 10° SSE visible
09 Feb 4.7 04:45:26 17° WSW 04:45:26 17° WSW 04:47:05 10° SW visible
10 Feb 4.0 04:08:07 34° SW 04:08:07 34° SW 04:11:06 10° SSW visible
